Stations météo

Publicité
Avignon, France (7563): Température de l'air & dewpoint: 18.01.2019 11:00:00 - 24.01.2019 11:00:00 (CET)Avignon, France (7563): Température de l'air 5cm: 18.01.2019 11:00:00 - 24.01.2019 11:00:00 (CET)Avignon, France (7563): Vitesse du vent & gusts: 18.01.2019 11:00:00 - 24.01.2019 11:00:00 (CET)Avignon, France (7563): Direction du vent: 18.01.2019 11:00:00 - 24.01.2019 11:00:00 (CET)Avignon, France (7563): reduced air pressure: 18.01.2019 11:00:00 - 24.01.2019 11:00:00 (CET)Avignon, France (7563): visibility: 18.01.2019 11:00:00 - 24.01.2019 11:00:00 (CET)Avignon, France (7563): Quantités de précipitations: 18.01.2019 11:00:00 - 24.01.2019 11:00:00 (CET)
Date & Time tt [°C] td [°C] tt 5cm [°C] ff [km/h] ff [knt] fx [km/h] fx [knt] dd ppp [hPa] vv [km] rr [mm]
24.01.2019 11:00:00 4,7 -4,1 5,4 56 30 94 51 N 1001,8 14 0,0
24.01.2019 10:00:00 4,1 -3,7 3,6 56 30 97 52 N 1000,9 13 0,0
24.01.2019 09:00:00 3,3 -3,1 2,2 59 32 94 51 N 999,4 12 0,0
24.01.2019 08:00:00 3,2 -3,0 2,2 60 33 95 52 N 998,8 26 0,0
24.01.2019 07:00:00 3,1 -2,8 2,0 58 31 99 54 N 997,4 29 0,0
24.01.2019 06:00:00 2,9 -2,4 1,8 56 30 92 50 N 997,0 23 0,0
24.01.2019 05:00:00 2,7 -2,4 1,8 48 26 89 48 N 996,8 30 0,0
24.01.2019 04:00:00 2,7 -2,2 1,7 44 24 87 47 N 996,7 36 0,0
24.01.2019 03:00:00 2,6 -2,9 1,7 53 28 83 45 N 996,3 46 0,0
24.01.2019 02:00:00 2,8 -2,9 2,1 55 30 86 46 N 995,6 49 0,0
24.01.2019 01:00:00 3,0 -2,7 2,0 45 24 72 39 N 996,1 48 0,0
24.01.2019 00:00:00 2,9 -2,6 1,9 41 22 72 39 N 995,9 49 0,0
23.01.2019 23:00:00 3,0 -2,3 1,6 41 22 62 34 N 995,9 56 0,0
23.01.2019 22:00:00 2,7 -2,4 1,7 35 19 66 36 N 995,7 57 0,0
23.01.2019 21:00:00 2,7 -2,6 1,4 34 18 54 29 NNW 995,5 53 0,0
23.01.2019 20:00:00 2,6 -2,1 1,4 30 16 56 30 N 995,4 50 0,0
23.01.2019 19:00:00 2,8 -1,8 1,4 34 19 54 29 NNW 995,3 52 0,0
23.01.2019 18:00:00 2,9 -1,3 1,3 30 16 55 30 N 994,5 48 0,4
23.01.2019 17:00:00 2,0 -0,3 0,3 33 18 60 32 N 993,9 49 2,0
23.01.2019 16:00:00 3,3 0,5 2,7 26 14 50 27 NNW 993,8 6 0,0
23.01.2019 15:00:00 5,6 -0,7 8,4 5 3 11 6 NE 993,0 20 0,0
23.01.2019 14:00:00 6,0 -1,2 6,6 4 2 14 8 ENE 994,1 10 0,0
23.01.2019 13:00:00 4,5 -1,5 4,6 6 3 11 6 ESE 995,4 9 0,0
23.01.2019 12:00:00 2,8 -1,9 4,0 5 3 8 5 N 996,6 7 0,0
23.01.2019 11:00:00 2,0 -2,0 2,1 0 0 8 5 N 997,1 5 0,2
23.01.2019 10:00:00 0,8 -1,6 -1,9 4 2 6 3 NNW 997,6 6 0,0
23.01.2019 09:00:00 -1,0 -2,7 -2,1 2 1 5 3 E 997,6 4,9 0,0
23.01.2019 08:00:00 -1,2 -2,6 -1,9 3 1 7 4 E 998,3 4,3 0,0
23.01.2019 07:00:00 -1,5 -2,9 -4,2 7 4 9 5 S 999,0 4,4 0,0
23.01.2019 06:00:00 -3,2 -4,2 -6,8 3 2 7 4 SE 999,6 5 0,0
23.01.2019 05:00:00 -3,9 -5,6 -7,1 2 1 5 3 SW 1000,2 4,4 0,0
23.01.2019 04:00:00 -2,7 -4,4 -6,6 0 0 6 4 N 1000,8 6 0,0
23.01.2019 03:00:00 -2,9 -4,6 -5,6 2 1 4 2 ENE 1001,4 6 0,0
23.01.2019 02:00:00 -2,2 -4,7 -5,0 2 1 5 3 WSW 1001,8 6 0,0
23.01.2019 01:00:00 -1,4 -3,8 -3,7 5 3 6 3 S 1002,3 7 0,0
23.01.2019 00:00:00 -1,1 -3,9 -2,7 2 1 4 2 NNW 1003,1 10 0,0
22.01.2019 23:00:00 -1,4 -4,1 -3,9 4 2 9 5 N 1003,8 9 0,0
22.01.2019 22:00:00 -2,4 -5,4 -5,8 5 3 8 4 S 1004,2 12 0,0
22.01.2019 21:00:00 -1,3 -5,0 -4,9 2 1 5 3 NE 1004,7 12 0,0
22.01.2019 20:00:00 1,1 -4,0 -3,3 0 0 7 4 N 1005,3 15 0,0
22.01.2019 19:00:00 4,1 -4,1 -1,4 5 3 9 5 NNE 1005,2 17 0,0
22.01.2019 18:00:00 4,3 -4,7 0,6 4 2 10 5 N 1005,3 18 0,0
22.01.2019 17:00:00 5,9 -5,1 4,8 7 4 18 10 NW 1005,7 26 0,0
22.01.2019 16:00:00 7,1 -4,1 8,1 14 8 26 14 NW 1006,1 20 0,0
22.01.2019 15:00:00 7,6 -3,0 11,0 17 9 32 17 NNW 1006,5 18 0,0
22.01.2019 14:00:00 7,8 -2,5 12,2 14 8 31 17 N 1007,5 19 0,0
22.01.2019 13:00:00 6,6 -2,3 9,2 20 11 34 18 N 1009,2 18 0,0
22.01.2019 12:00:00 5,1 -2,7 7,2 22 12 41 22 NNW 1010,9 17 0,0
22.01.2019 11:00:00 4,0 -2,9 5,6 26 14 41 22 N 1011,6 17 0,0
22.01.2019 10:00:00 2,8 -2,7 1,9 16 9 31 17 NNW 1012,0 16 0,0
22.01.2019 09:00:00 1,2 -3,1 -1,0 17 9 29 16 N 1012,5 13 0,0
22.01.2019 08:00:00 0,7 -3,4 -0,8 18 10 35 19 N 1012,9 13 0,0
22.01.2019 07:00:00 1,0 -3,1 -0,7 19 10 36 20 N 1013,0 14 0,0
22.01.2019 06:00:00 1,2 -2,7 -0,2 23 12 42 23 NNW 1013,0 13 0,0
22.01.2019 05:00:00 1,5 -2,6 0,3 23 12 42 23 N 1013,3 13 0,0
22.01.2019 04:00:00 1,6 -2,4 0,4 24 13 44 24 N 1014,1 11 0,0
22.01.2019 03:00:00 2,1 -1,9 0,8 25 13 48 26 N 1014,9 12 0,0
22.01.2019 02:00:00 2,5 -1,7 1,0 24 13 46 25 N 1015,2 12 0,0
22.01.2019 01:00:00 2,9 -1,5 1,8 29 16 48 26 N 1015,8 13 0,0
22.01.2019 00:00:00 3,3 -1,5 2,3 25 14 52 28 NNW 1016,5 16 0,0
21.01.2019 23:00:00 3,7 -1,1 2,6 31 17 53 29 N 1015,8 14 0,0
21.01.2019 22:00:00 4,2 -1,0 3,0 34 19 59 32 N 1015,9 15 0,0
21.01.2019 21:00:00 4,3 -0,7 3,2 34 18 55 30 N 1016,0 14 0,0
21.01.2019 20:00:00 4,6 -0,6 3,6 34 18 59 32 N 1015,5 14 0,0
21.01.2019 19:00:00 5,0 -0,6 3,6 31 17 56 30 N 1015,3 15 0,0
21.01.2019 18:00:00 5,4 -0,4 4,4 32 18 63 34 N 1015,1 14 0,0
21.01.2019 17:00:00 6,5 0,2 7,0 37 20 65 35 N 1015,0 13 0,0
21.01.2019 16:00:00 7,9 0,4 10,1 35 19 61 33 N 1014,8 25 0,0
21.01.2019 15:00:00 8,5 0,7 11,4 36 19 60 32 N 1014,9 11 0,0
21.01.2019 14:00:00 8,7 0,6 12,2 37 20 54 29 N 1015,3 11 0,0
21.01.2019 13:00:00 9,1 0,8 11,4 34 19 58 31 N 1015,7 11 0,0
21.01.2019 12:00:00 8,4 0,8 10,1 36 20 59 32 N 1015,9 9 0,0
21.01.2019 11:00:00 7,2 1,7 6,8 27 15 45 24 N 1016,4 9 0,0
21.01.2019 10:00:00 5,5 2,1 -1,2 23 12 38 20 N 1016,2 7 0,2
21.01.2019 09:00:00 -2,0 -2,8 -5,8 0 0 0 0 N 1016,1 3,6 0,0
21.01.2019 08:00:00 -4,3 -5,4 -8,2 0 0 0 0 N 1015,9 3,0 0,0
21.01.2019 07:00:00 -4,3 -5,5 -8,4 0 0 0 0 N 1015,4 1,8 0,0
21.01.2019 06:00:00 -3,8 -4,6 -8,0 0 0 0 0 N 1015,2 2,2 0,0
21.01.2019 05:00:00 -4,7 -6,1 -8,0 0 0 0 0 N 1015,3 2,3 0,0
21.01.2019 04:00:00 -4,3 -5,5 -8,2 0 0 0 0 N 1015,4 1,1 0,0
21.01.2019 03:00:00 -3,6 -4,4 -7,9 0 0 0 0 N 1015,6 2,7 0,0
21.01.2019 02:00:00 -4,0 -5,4 -7,8 0 0 0 0 N 1015,6 2,5 0,0
21.01.2019 01:00:00 -4,1 -5,5 -7,0 0 0 0 0 N 1015,7 0,2 0,0
21.01.2019 00:00:00 -3,3 -4,7 -6,6 0 0 5 3 N 1015,7 1,6 0,0
20.01.2019 23:00:00 -3,0 -4,4 -5,7 3 2 4 2 SE 1015,3 0,3 0,0
20.01.2019 22:00:00 -0,9 -1,6 -5,9 2 1 3 2 NNE 1015,2 3,1 0,0
20.01.2019 21:00:00 -1,3 -2,6 -5,0 4 2 5 3 ESE 1015,0 2,0 0,0
20.01.2019 20:00:00 -0,1 -1,2 -4,0 0 0 4 2 N 1014,7 3,5 0,0
20.01.2019 19:00:00 1,4 -0,2 -3,4 2 1 6 4 E 1014,3 6 0,0
20.01.2019 18:00:00 4,0 1,2 -1,4 5 3 6 3 E 1013,7 10 0,0
20.01.2019 17:00:00 7,7 2,6 6,8 2 1 6 4 WSW 1013,4 11 0,0
20.01.2019 16:00:00 8,7 2,5 9,3 2 1 9 5 WSW 1013,1 17 0,0
20.01.2019 15:00:00 8,7 2,0 9,1 0 0 6 3 N 1013,0 15 0,0
20.01.2019 14:00:00 7,9 2,1 8,9 4 2 8 4 NNW 1013,1 13 0,0
20.01.2019 13:00:00 7,4 1,9 8,9 4 2 9 5 NNW 1013,4 13 0,0
20.01.2019 12:00:00 7,5 1,8 6,4 4 2 8 5 WNW 1013,8 10 0,0
20.01.2019 11:00:00 5,2 1,7 4,5 6 3 11 6 NNE 1013,7 9 0,0
20.01.2019 10:00:00 3,8 1,2 2,5 4 2 8 5 NNE 1013,3 10 0,0
20.01.2019 09:00:00 2,1 0,3 1,4 3 1 6 3 S 1012,9 10 0,0
20.01.2019 08:00:00 2,0 0,1 0,5 6 3 10 5 NNE 1012,3 9 0,0
20.01.2019 07:00:00 1,0 -0,3 -1,4 7 4 9 5 N 1012,1 7 0,0
20.01.2019 06:00:00 1,3 -0,9 -1,0 0 0 8 5 N 1012,2 7 0,0
20.01.2019 05:00:00 2,0 -0,3 0,9 3 2 8 4 NNE 1012,3 7 0,0
20.01.2019 04:00:00 2,5 0,4 1,0 6 3 9 5 NE 1012,8 7 0,0
20.01.2019 03:00:00 1,7 -0,2 0,9 4 2 7 4 NNE 1013,2 4,9 0,0
20.01.2019 02:00:00 2,3 0,0 -2,1 6 3 9 5 NE 1012,8 11 0,0
20.01.2019 01:00:00 -0,2 -1,6 -3,6 5 3 8 4 NNE 1013,5 3,6 0,0
20.01.2019 00:00:00 0,4 -1,4 -3,9 5 3 10 5 S 1013,5 4,7 0,0
19.01.2019 23:00:00 1,0 -1,6 -3,6 2 1 9 5 S 1013,3 5 0,0
19.01.2019 22:00:00 0,1 -2,1 -3,8 6 3 11 6 SE 1013,3 5 0,0
19.01.2019 21:00:00 1,4 -0,5 -2,7 9 5 13 7 SE 1013,2 8 0,0
19.01.2019 20:00:00 -0,1 -3,1 -3,5 4 2 7 4 SSE 1013,2 11 0,0
19.01.2019 19:00:00 1,6 -2,0 -2,5 5 3 9 5 E 1013,0 8 0,0
19.01.2019 18:00:00 4,6 -0,2 -1,9 4 2 6 3 E 1012,7 15 0,0
19.01.2019 17:00:00 10,0 0,0 11,0 2 1 6 4 W 1012,5 16 0,0
19.01.2019 16:00:00 10,7 0,4 16,6 0 0 7 4 N 1012,5 19 0,0
19.01.2019 15:00:00 9,8 -0,4 15,4 4 2 9 5 NNW 1012,9 18 0,0
19.01.2019 14:00:00 8,8 -0,5 14,3 6 3 11 6 NNW 1013,8 19 0,0
19.01.2019 13:00:00 7,5 -0,7 12,0 6 4 13 7 N 1014,7 18 0,0
19.01.2019 12:00:00 5,7 -0,6 9,1 5 3 14 7 - 1015,7 10 0,0
19.01.2019 11:00:00 3,6 -1,6 5,1 10 5 14 7 N 1016,3 9 0,0
19.01.2019 10:00:00 1,0 -1,9 -2,3 9 5 13 7 N 1016,0 10 0,0
19.01.2019 09:00:00 -3,7 -5,0 -7,7 0 0 2 1 N 1015,8 6 0,0
19.01.2019 08:00:00 -4,5 -5,9 -7,9 0 0 5 3 N 1015,6 7 0,0
19.01.2019 07:00:00 -3,8 -5,2 -7,9 0 0 4 2 N 1015,4 7 0,0
19.01.2019 06:00:00 -4,1 -5,9 -7,9 0 0 3 2 N 1015,5 7 0,0
19.01.2019 05:00:00 -3,6 -5,5 -6,9 0 0 4 2 N 1015,5 9 0,0
19.01.2019 04:00:00 -2,2 -4,4 -6,0 3 2 4 2 NE 1015,9 14 0,0
19.01.2019 03:00:00 -0,7 -3,6 -3,6 0 0 9 5 N 1016,1 17 0,0
19.01.2019 02:00:00 0,4 -3,2 -3,3 7 4 9 5 WNW 1016,0 20 0,0
19.01.2019 01:00:00 2,0 -2,3 -0,1 6 3 13 7 NNW 1016,0 24 0,0
19.01.2019 00:00:00 2,5 -2,2 0,2 9 5 15 8 NNW 1016,1 27 0,0
18.01.2019 23:00:00 2,3 -2,4 0,1 9 5 22 12 N 1015,7 27 0,0
18.01.2019 22:00:00 2,7 -2,8 1,0 13 7 26 14 NNW 1015,8 36 0,0
18.01.2019 21:00:00 2,7 -3,4 0,8 13 7 25 14 NNW 1016,0 48 0,0
18.01.2019 20:00:00 4,0 -3,1 2,8 18 10 34 18 N 1015,8 50 0,0
18.01.2019 19:00:00 4,6 -3,0 3,4 21 11 37 20 N 1015,5 49 0,0
18.01.2019 18:00:00 4,9 -2,9 3,9 19 10 35 19 N 1015,3 56 0,0
18.01.2019 17:00:00 5,8 -2,8 5,0 24 13 47 25 N 1014,9 59 0,0
18.01.2019 16:00:00 7,1 -4,4 8,2 24 13 46 25 N 1014,9 42 0,0
18.01.2019 15:00:00 7,7 -5,4 9,2 32 17 54 29 N 1015,1 20 0,0
18.01.2019 14:00:00 7,2 -3,4 9,2 36 20 55 30 NNW 1015,2 20 0,0
18.01.2019 13:00:00 7,5 -1,0 9,3 24 13 52 28 NNW 1016,1 22 0,0
18.01.2019 12:00:00 7,3 -1,2 9,4 31 17 49 26 N 1016,5 25 0,0
18.01.2019 11:00:00 7,0 -0,5 5,2 27 14 44 24 N 1017,3 27 0,0

tt = Température de l'air
td = dewpoint
tt 5cm = Température de l'air 5cm
ff = Vitesse du vent
fx = gusts
dd = Direction du vent
ppp = reduced air pressure
vv = visibility
rr = Quantités de précipitations

stations d'obs. à proximité